Location: Unspecified
(0.0000°N, 0.0000°E)
Time: 12:40:33
(UTC+00:00)

STARLINK-36491 - Pass Details

Date: 21 February 2026
Orbit: 482 x 484 km, 43.0° (Epoch: 8 March)

Event Time Altitude Azimuth Distance (km) Brightness Sun altitude
Rises 18:38:34 0° 257° (WSW) 2,528 ? -6.1°
Reaches altitude 10° 18:41:37 10° 284° (WNW) 1,648 ? -6.9°
Maximum altitude 18:43:35 14° 316° (NW) 1,432 ? -7.4°
Drops below altitude 10° 18:45:33 10° 347° (NNW) 1,648 ? -7.9°
Sets 18:48:38 0° 14° (NNE) 2,526 ? -8.6°
